Home   Weather   Ingolstadt   Past weeks

Flag for Germany Past Weather in Ingolstadt, Bavaria, Germany — Yesterday and Last 2 Weeks

Now
50 °F

Partly sunny.


Feels Like: 43 °F
Forecast: 46 / 58 °F
Wind: 25 mph from West

Location: Ingolstadt Airport

Current Time: Feb 22, 2017 at 5:09:39 pm

Latest Report: Feb 22, 2017 at 4:20 pm


Visibility: N/A

Pressure: 29.86 "Hg

Humidity: 67%

Dew Point: 39 °F

Location of IngolstadtLocation

Past Weather in Ingolstadt — Graph

°F

Ingolstadt Temperature Yesterday

Maximum temperature yesterday: 50 °F (at 2:38 pm)
Minimum temperature yesterday: 45 °F (at 12:20 am)
Average temperature yesterday: 47 °F

High & Low Weather Summary for the Past Weeks

 TemperatureHumidityPressure
High52 °F (Feb 16, 2:20 pm)100% (Feb 16, 5:59 am)30.60 "Hg (Feb 16, 5:59 am)
Low21 °F (Feb 15, 5:20 am)46% (Feb 14, 2:20 pm)29.89 "Hg (Feb 22, 1:20 pm)
Average36 °F82%30.23 "Hg
* Reported Feb 7 3:20 pm — Feb 22 3:20 pm, Ingolstadt, Weather by CustomWeather, © 2017

Note: Actual official high and low records may vary slightly from our data, if they occured in-between our weather recording intervals... More about our weather records

Advertising

Ingolstadt Weather History for the Previous 24 Hours

Scroll right to see more
 ConditionsComfort  
Time TempWeatherWind HumidityBarometerVisibility
3:20 pm
Wed, Feb 22
52 °FPartly sunny.22 mph67%29.89 "HgN/A
2:20 pm50 °FPartly sunny.25 mph67%29.89 "HgN/A
1:20 pm52 °FPartly sunny.25 mph62%29.89 "HgN/A
12:20 pm52 °FPartly sunny.28 mph67%29.92 "HgN/A
11:20 am52 °FPartly sunny.20 mph72%29.92 "HgN/A
10:20 am52 °FPartly sunny.18 mph72%29.92 "HgN/A
9:20 am50 °FPartly sunny.15 mph82%29.92 "HgN/A
8:20 am50 °FPartly sunny.15 mph82%29.92 "HgN/A
7:20 am48 °FBroken clouds.15 mph87%29.92 "HgN/A
6:20 am48 °FPassing clouds.13 mph87%29.92 "HgN/A
5:20 am48 °FPassing clouds.14 mph87%29.95 "HgN/A
4:20 am48 °FCool.10 mph87%29.95 "HgN/A
3:20 am48 °FCool.9 mph94%29.98 "HgN/A
2:20 am46 °FCool.7 mph100%29.98 "Hg1 mi
1:20 am48 °FCool.9 mph94%30.01 "Hg1 mi
12:20 am48 °FCool.7 mph94%30.01 "Hg3 mi
11:20 pm
Tue, Feb 21
48 °FCool.7 mph94%30.01 "Hg1 mi
10:20 pm48 °FPassing clouds.10 mph94%30.04 "Hg4 mi
9:48 pm48 °FPassing clouds.12 mph94%30.04 "Hg4 mi
9:20 pm48 °FPartly cloudy.10 mph94%30.04 "Hg4 mi
8:20 pm48 °FCool.13 mph94%30.04 "Hg2 mi
7:20 pm48 °FCool.14 mph94%30.04 "HgN/A
6:52 pm48 °FPartly cloudy.7 mph94%30.01 "Hg4 mi
6:20 pm46 °FPassing clouds.3 mph100%30.01 "Hg4 mi
5:52 pm46 °FLight rain. Passing clouds.5 mph93%30.01 "Hg4 mi
5:20 pm46 °FLight rain. Partly sunny.6 mph93%30.01 "Hg5 mi
5:00 pm46 °FRain showers. Partly sunny.8 mph93%30.01 "Hg3 mi
Weather by CustomWeather, © 2017

See weather overviewHow to use our weather pages